This demonstration page uses our WeatherBlox Daily Observations layout. Learn more.

Left ArrowRight Arrow

39.29038, -76.61219

Hourly Observations for May 31, 2017

Temp ( °F °C ) Dew Point ( °F °C ) Humidity (%) Winds ( mph kmh ) Pressure ( in mb ) Visibility ( mi km ) Precip ( " mm )
12:54 am 00:54 undefined 65 18.3 64 17.8 97 97 undefined N/A 30.04 1017 N/A 0.00 0.00
1:54 am 01:54 undefined 65 18.3 63 17.2 93 93 undefined N/A 30.04 1017 N/A 0.00 0.00
2:54 am 02:54 undefined 65 18.3 64 17.8 97 97 undefined N/A 30.02 1017 N/A 0.00 0.00
3:54 am 03:54 undefined 65 18.3 64 17.8 97 97 undefined N/A 30.01 1016 N/A 0.00 0.00
4:54 am 04:54 undefined 65 18.3 64 17.8 97 97 undefined N/A 30.01 1016 N/A 0.00 0.00
5:54 am 05:54 undefined 66 18.9 64 17.8 93 93 undefined N/A 30.01 1016 N/A 0.00 0.00
6:54 am 06:54 undefined 66 18.9 63 17.2 90 90 undefined N/A 30.04 1017 N/A 0.00 0.00
7:54 am 07:54 undefined 68 20 63 17.2 84 84 undefined N/A 30.04 1017 N/A 0.00 0.00
9:54 am 09:54 undefined 73 22.8 64 17.8 74 74 undefined N/A 30.05 1018 N/A 0.00 0.00
10:54 am 10:54 undefined 73 22.8 65 18.3 76 76 undefined N/A 30.03 1017 N/A 0.00 0.00
11:54 am 11:54 undefined 75 23.9 65 18.3 71 71 undefined N/A 30.02 1017 N/A 0.00 0.00
12:54 pm 12:54 undefined 78 25.6 66 18.9 67 67 undefined N/A 30.01 1016 N/A 0.00 0.00
1:54 pm 13:54 undefined 77 25 66 18.9 69 69 undefined N/A 30.01 1016 N/A 0.00 0.00
2:54 pm 14:54 undefined 78 25.6 66 18.9 67 67 undefined N/A 29.98 1015 N/A 0.00 0.00
3:54 pm 15:54 undefined 79 26.1 67 19.4 67 67 undefined N/A 29.96 1015 N/A 0.00 0.00
4:54 pm 16:54 undefined 80 26.7 68 20 67 67 undefined N/A 29.94 1014 N/A 0.00 0.00
5:54 pm 17:54 undefined 78 25.6 67 19.4 69 69 undefined N/A 29.94 1014 N/A 0.00 0.00
6:54 pm 18:54 undefined 71 21.7 61 16.1 71 71 undefined N/A 29.96 1015 N/A 0.01 0.25
7:54 pm 19:54 undefined 72 22.2 64 17.8 76 76 undefined N/A 29.96 1015 N/A 0.00 0.00
8:54 pm 20:54 undefined 71 21.7 64 17.8 79 79 undefined N/A 29.96 1015 N/A 0.00 0.00
9:54 pm 21:54 undefined 70 21.1 65 18.3 84 84 undefined N/A 29.97 1015 N/A 0.00 0.00
10:54 pm 22:54 undefined 69 20.6 64 17.8 84 84 undefined N/A 29.98 1015 N/A 0.00 0.00
11:54 pm 23:54 undefined 69 20.6 61 16.1 76 76 undefined N/A 29.98 1015 N/A 0.00 0.00

Powered by AerisWeather